TimeCST,TemperatureF,Dew PointF,Humidity,Sea Level PressureIn,VisibilityMPH,Wind Direction,Wind SpeedMPH,Gust SpeedMPH,PrecipitationIn,Events,Conditions,WindDirDegrees,DateUTC
12:00 AM,72,61,59,29.77,12,East,10.4,,,,Scattered Clouds,100,2012-07-17 06:00:00
12:00 AM,71.6,60.8,69,29.96,6.2,East,10.4,-,N/A,,Partly Cloudy,100,2012-07-17 06:00:00
1:00 AM,71.6,59.0,64,29.96,6.2,East,10.4,-,N/A,,Partly Cloudy,80,2012-07-17 07:00:00
2:00 AM,69.8,60.8,73,29.95,6.2,ESE,4.6,-,N/A,,Partly Cloudy,120,2012-07-17 08:00:00
3:00 AM,70,60,64,29.77,12,East,8.1,,,,Scattered Clouds,90,2012-07-17 09:00:00
3:00 AM,69.8,60.8,73,29.93,6.2,East,8.1,-,N/A,,Partly Cloudy,90,2012-07-17 09:00:00
4:00 AM,69.8,60.8,73,29.93,-9999.0,East,8.1,-,N/A,,Clear,100,2012-07-17 10:00:00
5:00 AM,69.8,59.0,68,29.94,-9999.0,ESE,8.1,-,N/A,,Clear,120,2012-07-17 11:00:00
6:00 AM,70,60,61,29.82,12,ESE,9.2,,,,Scattered Clouds,110,2012-07-17 12:00:00
6:00 AM,69.8,59.0,68,29.96,6.2,ESE,9.2,-,N/A,,Mostly Cloudy,110,2012-07-17 12:00:00
7:00 AM,73.4,60.8,65,29.97,-9999.0,ESE,12.7,-,N/A,,Clear,120,2012-07-17 13:00:00
8:00 AM,77.0,59.0,54,29.97,-9999.0,East,8.1,-,N/A,,Clear,90,2012-07-17 14:00:00
9:00 AM,78.8,59.0,51,29.98,-9999.0,East,12.7,-,N/A,,Clear,80,2012-07-17 15:00:00
10:00 AM,80.6,57.2,45,29.99,-9999.0,East,11.5,-,N/A,,Clear,90,2012-07-17 16:00:00
11:00 AM,82.4,59.0,45,29.98,-9999.0,East,12.7,-,N/A,,Clear,80,2012-07-17 17:00:00
12:00 PM,83,57,31,29.79,12,ESE,6.9,,,,Clear,110,2012-07-17 18:00:00
12:00 PM,84.2,57.2,40,29.98,-9999.0,ESE,6.9,-,N/A,,Clear,110,2012-07-17 18:00:00
1:00 PM,86.0,59.0,40,29.96,-9999.0,ESE,5.8,-,N/A,,Clear,110,2012-07-17 19:00:00
2:00 PM,86.0,57.2,37,29.93,6.2,SSE,3.5,-,N/A,,Scattered Clouds,160,2012-07-17 20:00:00
3:00 PM,86,72,54,29.70,12,SW,4.6,,,,Scattered Clouds,230,2012-07-17 21:00:00
3:00 PM,86.0,71.6,62,29.92,6.2,SW,4.6,-,N/A,,Scattered Clouds,230,2012-07-17 21:00:00
4:00 PM,-9999,-9999,N/A,29.91,6.2,SW,10.4,-,N/A,,Mostly Cloudy,230,2012-07-17 22:00:00
5:00 PM,75.2,62.6,65,29.93,6.2,West,6.9,-,N/A,Thunderstorm,Scattered Clouds,260,2012-07-17 23:00:00
6:00 PM,75,62,55,29.83,9,East,5.8,,,,Partly Cloudy,100,2012-07-18 00:00:00
6:00 PM,75.2,62.6,65,29.97,6.2,East,5.8,-,N/A,,Scattered Clouds,100,2012-07-18 00:00:00
7:00 PM,73.4,62.6,69,29.98,-9999.0,East,3.5,-,N/A,,Clear,80,2012-07-18 01:00:00
8:00 PM,73.4,60.8,65,30.00,-9999.0,East,5.8,-,N/A,,Clear,90,2012-07-18 02:00:00
9:00 PM,72,62,62,29.85,12,ENE,10.4,,,,Clear,70,2012-07-18 03:00:00
9:00 PM,71.6,62.6,73,30.02,-9999.0,ENE,4.6,-,N/A,,Clear,70,2012-07-18 03:00:00
10:00 PM,71.6,62.6,73,29.97,-9999.0,SE,4.6,-,N/A,,Clear,130,2012-07-18 04:00:00
11:00 PM,71.6,62.6,73,29.95,-9999.0,East,4.6,-,N/A,,Clear,90,2012-07-18 05:00:00